Retour au catalogue

DELTA 1 DEB

ActifLEO
NORAD 7054·DEBRIS·🇺🇸 United States

Lancé Nov 6, 1973 depuis Vandenberg Space Force Base

Loading…

Prochains Passages (prochaines 24 heures)

TLE

FraisSource: Space-Track

Époque: Sep 14, 2026, 14:45 UTC

1 07054U 73086AW  26257.61502578  .00000408  00000-0  11354-2 0  9994
2 07054 101.5082 303.9400 0313572  63.8864  98.9161 13.03836876512108

Suivez DELTA 1 DEB en temps réel avec AllMySat

Download on the App Store